Location: Banff
(51.1670°N, 115.5670°W)
Time: 04:21:15
(UTC-06:00)

Amateur Radio Satellites - All Passes

Search period start: 21 October 2014 03:51
Search period end: 22 October 2014 03:51
Location: Banff, 51.1670°N, 115.5670°W

Satellite Date Start Highest point End Downlink Frequencies (MHz)
Time Altitude Azimuth
Uribyol 2 21 Oct 03:57:13 04:02:26 62° 102° (ESE) 04:07:35 436.500 FM
Gurwin Techsat 1B 21 Oct 03:57:17 04:02:09 35° 95° (E) 04:06:59 435.225 FM
ITAMSAT 1 21 Oct 04:02:08 04:07:22 65° 102° (ESE) 04:12:33 435.822 SSB
JAS-1B 21 Oct 04:07:53 04:14:04 80° 289° (WNW) 04:21:22 435.800 - 435.900 CW/SSB
TMSAT-1 21 Oct 04:11:18 04:16:10 35° 95° (E) 04:20:59 436.925 FM
AO-Echo 21 Oct 04:14:12 04:19:30 81° 287° (WNW) 04:24:49 ?
RS-15 21 Oct 04:39:49 04:49:59 41° 360° (N) 05:00:22 29.354 - 29.394 USB, Beacon 29.352 USB
Oscar 19 21 Oct 04:40:04 04:44:35 32° 298° (WNW) 04:49:04 437.125 CW, 437.150 USB
AO-27 21 Oct 04:46:46 04:51:55 58° 291° (WNW) 04:57:03 436.795 MHz FM
OPAL 21 Oct 04:54:39 04:59:26 40° 62° (ENE) 05:04:11 ?
JAS-2 21 Oct 05:07:58 05:09:22 11° 76° (ENE) 05:10:47 435.800 - 435.900 CW/SSB, 435.910 FM
AO-7 21 Oct 05:24:59 05:32:38 39° 96° (E) 05:40:15 29.400 - 29.500 MHz
Oscar 16 21 Oct 05:26:06 05:29:09 16° 307° (NW) 05:32:12 437.025 USB, Beacon 2401.1428
Sapphire 21 Oct 05:26:59 05:31:37 30° 112° (ESE) 05:36:17 437.095 MHz 1200 baud AX-25 AFSK
Gurwin Techsat 1B 21 Oct 05:37:13 05:42:13 42° 295° (WNW) 05:47:11 435.225 FM
Uribyol 2 21 Oct 05:37:20 05:41:32 25° 302° (WNW) 05:45:44 436.500 FM
ITAMSAT 1 21 Oct 05:42:18 05:46:28 25° 302° (WNW) 05:50:37 435.822 SSB
PCSat 21 Oct 05:49:20 05:54:29 46° 117° (ESE) 05:59:39 145.825 MHz
TMSAT-1 21 Oct 05:51:11 05:56:11 42° 295° (WNW) 06:01:09 436.925 FM
AO-Echo 21 Oct 05:54:14 05:57:31 17° 306° (NW) 06:00:50 ?
Uosat F 21 Oct 05:55:32 06:00:25 45° 99° (E) 06:05:15 435.120 FM
JAS-1B 21 Oct 05:59:54 06:04:04 19° 308° (NW) 06:08:36 435.800 - 435.900 CW/SSB
AO-27 21 Oct 06:28:15 06:30:25 13° 312° (NW) 06:32:36 436.795 MHz FM
STRAND 1 21 Oct 06:32:37 06:37:10 33° 62° (ENE) 06:41:45 ?
OPAL 21 Oct 06:33:38 06:38:22 36° 261° (W) 06:43:05 ?
Hamsat 21 Oct 06:36:29 06:39:25 18° 90° (E) 06:42:20 145.90 MHz
JAS-2 21 Oct 06:48:52 06:56:11 48° 97° (E) 07:03:43 435.800 - 435.900 CW/SSB, 435.910 FM
RS-15 21 Oct 06:54:10 07:05:01 57° 32° (NNE) 07:16:13 29.354 - 29.394 USB, Beacon 29.352 USB
Sapphire 21 Oct 07:09:24 07:14:45 60° 313° (NW) 07:20:09 437.095 MHz 1200 baud AX-25 AFSK
AO-7 21 Oct 07:17:42 07:25:52 63° 298° (WNW) 07:34:02 29.400 - 29.500 MHz
PCSat 21 Oct 07:32:50 07:37:59 42° 319° (NW) 07:43:10 145.825 MHz
Uosat F 21 Oct 07:34:38 07:39:04 31° 298° (WNW) 07:43:29 435.120 FM
STRAND 1 21 Oct 08:11:23 08:16:16 44° 262° (W) 08:21:12 ?
Hamsat 21 Oct 08:11:37 08:15:43 55° 289° (WNW) 08:19:49 145.90 MHz
JAS-2 21 Oct 08:34:03 08:41:13 50° 296° (WNW) 08:48:41 435.800 - 435.900 CW/SSB, 435.910 FM
Sapphire 21 Oct 08:55:13 08:59:18 21° 336° (NNW) 09:03:24 437.095 MHz 1200 baud AX-25 AFSK
SO-67 21 Oct 09:03:27 09:06:56 88° 284° (WNW) 09:10:23 435.3500 MHz FM
RS-15 21 Oct 09:06:55 09:17:49 66° 239° (WSW) 09:29:10 29.354 - 29.394 USB, Beacon 29.352 USB
AO-7 21 Oct 09:11:23 09:17:13 22° 322° (NW) 09:23:03 29.400 - 29.500 MHz
PCSat 21 Oct 09:19:12 09:22:51 18° 343° (NNW) 09:26:31 145.825 MHz
Saudisat 1A 21 Oct 09:21:12 09:24:53 27° 118° (ESE) 09:28:36 436.775 MHz
MaSat-1 21 Oct 09:26:18 09:28:14 16° 40° (NE) 09:30:02 437.345 MHz
Oscar 11 21 Oct 10:13:59 10:15:50 12° 86° (E) 10:17:39 145.825 FM, Beacon 2401.500 USB
JAS-2 21 Oct 10:20:39 10:24:42 16° 317° (NW) 10:28:53 435.800 - 435.900 CW/SSB, 435.910 FM
HO-68 21 Oct 10:23:46 10:30:41 46° 99° (E) 10:37:32 435.675 MHz FM
Sapphire 21 Oct 10:41:45 10:44:49 15° 2° (N) 10:47:54 437.095 MHz 1200 baud AX-25 AFSK
ZACube-1 21 Oct 10:51:54 10:54:04 13° 86° (E) 10:56:11 437.345 MHz
Saudisat 1A 21 Oct 10:59:53 11:04:13 55° 318° (NW) 11:08:35 436.775 MHz
MaSat-1 21 Oct 11:01:32 11:04:14 39° 244° (WSW) 11:06:40 437.345 MHz
UKube-1 21 Oct 11:03:19 11:07:24 37° 98° (E) 11:11:28 145.840 MHz, 145.915 MHz
PCSat 21 Oct 11:05:12 11:08:27 16° 9° (N) 11:11:43 145.825 MHz
RS-15 21 Oct 11:21:07 11:27:56 19° 263° (W) 11:34:56 29.354 - 29.394 USB, Beacon 29.352 USB
FUNcube-1 21 Oct 11:36:20 11:40:19 34° 96° (E) 11:44:11 145.950 - 145.970 MHz USB
Oscar 11 21 Oct 11:48:18 11:52:39 86° 285° (WNW) 11:56:57 145.825 FM, Beacon 2401.500 USB
HO-68 21 Oct 12:11:38 12:18:27 48° 300° (WNW) 12:25:14 435.675 MHz FM
Sapphire 21 Oct 12:25:49 12:30:14 24° 28° (NNE) 12:34:37 437.095 MHz 1200 baud AX-25 AFSK
ZACube-1 21 Oct 12:26:43 12:31:05 79° 286° (WNW) 12:35:19 437.345 MHz
UKube-1 21 Oct 12:39:42 12:43:31 30° 297° (WNW) 12:47:19 145.840 MHz, 145.915 MHz
Saudisat 1A 21 Oct 12:41:30 12:44:42 19° 340° (NNW) 12:47:54 436.775 MHz
Oscar 19 21 Oct 12:45:08 12:48:50 20° 56° (NE) 12:52:32 437.125 CW, 437.150 USB
PCSat 21 Oct 12:48:49 12:53:38 31° 35° (NE) 12:58:25 145.825 MHz
AO-7 21 Oct 12:54:03 12:56:01 11° 17° (NNE) 12:58:00 29.400 - 29.500 MHz
AO-27 21 Oct 12:55:03 12:57:22 13° 49° (NE) 12:59:41 436.795 MHz FM
JAS-1B 21 Oct 13:10:23 13:15:18 29° 58° (ENE) 13:20:05 435.800 - 435.900 CW/SSB
FUNcube-1 21 Oct 13:12:50 13:16:40 31° 295° (WNW) 13:20:23 145.950 - 145.970 MHz USB
Oscar 11 21 Oct 13:26:04 13:28:11 14° 305° (NW) 13:30:17 145.825 FM, Beacon 2401.500 USB
Oscar 16 21 Oct 13:28:44 13:33:34 42° 65° (ENE) 13:38:24 437.025 USB, Beacon 2401.1428
Oscar 10/S400 21 Oct 13:39:07 13:49:21 16° 144° (SE) 13:59:50 145.825 - 145.975 CW/USB, Beacon 145.810 USB
KITSAT 1 21 Oct 13:41:21 13:48:48 43° 114° (ESE) 13:56:17 435.175 FM
Uribyol 2 21 Oct 13:42:05 13:46:28 28° 60° (ENE) 13:50:52 436.500 FM
Gurwin Techsat 1B 21 Oct 13:46:06 13:49:34 18° 53° (NE) 13:53:02 435.225 FM
ITAMSAT 1 21 Oct 13:47:04 13:51:30 29° 60° (ENE) 13:55:57 435.822 SSB
AO-Echo 21 Oct 13:54:19 13:58:46 36° 64° (ENE) 14:03:22 ?
TMSAT-1 21 Oct 13:59:51 14:03:16 18° 53° (NE) 14:06:43 436.925 FM
HO-68 21 Oct 14:00:52 14:04:32 15° 323° (NW) 14:08:11 435.675 MHz FM
ZACube-1 21 Oct 14:04:54 14:06:44 13° 306° (NW) 14:08:34 437.345 MHz
Sapphire 21 Oct 14:09:03 14:14:32 77° 51° (NE) 14:19:58 437.095 MHz 1200 baud AX-25 AFSK
SO-50 21 Oct 14:09:21 14:12:14 17° 112° (ESE) 14:15:10 436.795 FM
Oscar 19 21 Oct 14:22:28 14:27:38 79° 256° (WSW) 14:32:49 437.125 CW, 437.150 USB
Saudisat 1A 21 Oct 14:23:21 14:25:52 15° 5° (N) 14:28:24 436.775 MHz
AO-27 21 Oct 14:30:46 14:35:54 61° 69° (ENE) 14:41:04 436.795 MHz FM
PCSat 21 Oct 14:32:07 14:37:34 73° 237° (WSW) 14:42:57 145.825 MHz
AO-7 21 Oct 14:39:35 14:45:59 26° 43° (NE) 14:52:23 29.400 - 29.500 MHz
JAS-1B 21 Oct 14:59:57 15:05:48 55° 259° (W) 15:11:23 435.800 - 435.900 CW/SSB
Oscar 16 21 Oct 15:08:21 15:13:01 34° 264° (W) 15:17:43 437.025 USB, Beacon 2401.1428
ISS 21 Oct 15:11:04 15:13:24 18° 142° (SE) 15:15:43 145.800 FM
Uribyol 2 21 Oct 15:20:33 15:25:40 55° 259° (W) 15:30:50 436.500 FM
Gurwin Techsat 1B 21 Oct 15:23:30 15:28:49 86° 73° (ENE) 15:34:11 435.225 FM
ITAMSAT 1 21 Oct 15:25:40 15:30:45 53° 260° (W) 15:35:53 435.822 SSB
AO-Echo 21 Oct 15:33:01 15:37:32 37° 264° (W) 15:42:14 ?
KITSAT 1 21 Oct 15:35:58 15:43:59 64° 317° (NW) 15:52:02 435.175 FM
Uosat F 21 Oct 15:37:07 15:40:42 20° 56° (NE) 15:44:18 435.120 FM
TMSAT-1 21 Oct 15:37:10 15:42:29 85° 73° (ENE) 15:47:50 436.925 FM
SO-50 21 Oct 15:47:36 15:52:09 86° 312° (NW) 15:56:52 436.795 FM
UOSAT-12 21 Oct 15:52:55 15:55:58 18° 112° (ESE) 15:59:04 437.025 FM, 437.400 FM
Sapphire 21 Oct 15:53:18 15:57:25 22° 251° (WSW) 16:01:31 437.095 MHz 1200 baud AX-25 AFSK
Saudisat 1A 21 Oct 16:03:07 16:06:52 26° 29° (NNE) 16:10:37 436.775 MHz
Oscar 19 21 Oct 16:05:32 16:07:51 13° 275° (W) 16:10:10 437.125 CW, 437.150 USB
AO-27 21 Oct 16:11:41 16:15:49 24° 269° (W) 16:20:00 436.795 MHz FM
PCSat 21 Oct 16:17:23 16:20:03 14° 257° (WSW) 16:22:43 145.825 MHz
AO-7 21 Oct 16:29:24 16:37:39 77° 66° (ENE) 16:45:57 29.400 - 29.500 MHz
ISS 21 Oct 16:46:20 16:49:39 63° 161° (SSE) 16:52:58 145.800 FM
Gurwin Techsat 1B 21 Oct 17:06:11 17:09:31 17° 273° (W) 17:12:52 435.225 FM
JAS-2 21 Oct 17:07:16 17:12:40 35° 58° (ENE) 17:18:41 435.800 - 435.900 CW/SSB, 435.910 FM
Uosat F 21 Oct 17:13:55 17:18:57 78° 255° (WSW) 17:24:02 435.120 FM
TMSAT-1 21 Oct 17:19:45 17:23:07 17° 273° (W) 17:26:30 436.925 FM
SO-50 21 Oct 17:29:31 17:33:22 25° 334° (NNW) 17:37:18 436.795 FM
UOSAT-12 21 Oct 17:30:50 17:35:31 86° 311° (NW) 17:40:17 437.025 FM, 437.400 FM
KITSAT 1 21 Oct 17:33:57 17:41:00 31° 344° (NNW) 17:48:04 435.175 FM
Hamsat 21 Oct 17:34:37 17:38:07 26° 64° (ENE) 17:41:36 145.90 MHz
Saudisat 1A 21 Oct 17:42:29 17:46:56 81° 230° (SW) 17:51:21 436.775 MHz
ISS 21 Oct 18:23:00 18:26:21 80° 0° (N) 18:29:43 145.800 FM
AO-7 21 Oct 18:24:14 18:31:15 30° 267° (W) 18:38:19 29.400 - 29.500 MHz
OPAL 21 Oct 18:37:54 18:42:33 37° 99° (E) 18:47:08 ?
JAS-2 21 Oct 18:51:38 18:57:26 56° 261° (W) 19:04:05 435.800 - 435.900 CW/SSB, 435.910 FM
Uosat F 21 Oct 18:56:29 18:58:36 13° 275° (W) 19:00:44 435.120 FM
Hamsat 21 Oct 19:09:56 19:13:55 40° 262° (W) 19:17:54 145.90 MHz
UOSAT-12 21 Oct 19:12:21 19:16:18 26° 334° (NNW) 19:20:17 437.025 FM, 437.400 FM
SO-50 21 Oct 19:12:31 19:15:29 16° 359° (N) 19:18:29 436.795 FM
HO-68 21 Oct 19:13:40 19:18:05 18° 41° (NE) 19:22:31 435.675 MHz FM
Saudisat 1A 21 Oct 19:23:40 19:25:48 13° 249° (WSW) 19:27:56 436.775 MHz
KITSAT 1 21 Oct 19:32:02 19:39:00 30° 13° (NNE) 19:45:57 435.175 FM
SO-67 21 Oct 19:40:41 19:44:06 67° 74° (ENE) 19:47:33 435.3500 MHz FM
ISS 21 Oct 19:59:44 20:03:03 60° 200° (SSW) 20:06:21 145.800 FM
STRAND 1 21 Oct 20:16:24 20:21:21 43° 98° (E) 20:26:15 ?
OPAL 21 Oct 20:16:52 20:21:27 37° 299° (WNW) 20:25:58 ?
UKube-1 21 Oct 20:31:22 20:32:26 11° 51° (NE) 20:33:30 145.840 MHz, 145.915 MHz
JAS-2 21 Oct 20:43:38 20:44:21 10° 285° (WNW) 20:45:05 435.800 - 435.900 CW/SSB, 435.910 FM
SO-50 21 Oct 20:53:49 20:57:39 23° 23° (NNE) 21:01:32 436.795 FM
UOSAT-12 21 Oct 20:55:01 20:58:00 16° 358° (N) 21:00:58 437.025 FM, 437.400 FM
HO-68 21 Oct 20:57:28 21:04:26 59° 64° (ENE) 21:11:28 435.675 MHz FM
Oscar 11 21 Oct 21:13:29 21:16:40 20° 60° (ENE) 21:19:51 145.825 FM, Beacon 2401.500 USB
SO-67 21 Oct 21:16:39 21:17:32 11° 273° (W) 21:18:25 435.3500 MHz FM
KITSAT 1 21 Oct 21:28:14 21:36:13 57° 40° (NE) 21:44:08 435.175 FM
RS-15 21 Oct 21:34:54 21:37:21 11° 90° (E) 21:39:48 29.354 - 29.394 USB, Beacon 29.352 USB
ISS 21 Oct 21:37:03 21:39:17 17° 219° (SW) 21:41:29 145.800 FM
ZACube-1 21 Oct 21:52:37 21:56:14 24° 62° (ENE) 21:59:49 437.345 MHz
STRAND 1 21 Oct 21:55:50 22:00:27 34° 298° (WNW) 22:05:01 ?
UKube-1 21 Oct 22:03:28 22:07:46 63° 71° (ENE) 22:12:07 145.840 MHz, 145.915 MHz
SO-50 21 Oct 22:34:11 22:39:00 71° 45° (NE) 22:43:52 436.795 FM
UOSAT-12 21 Oct 22:35:59 22:39:45 23° 22° (NNE) 22:43:30 437.025 FM, 437.400 FM
FUNcube-1 21 Oct 22:37:08 22:41:36 54° 70° (ENE) 22:46:02 145.950 - 145.970 MHz USB
HO-68 21 Oct 22:46:01 22:52:30 36° 265° (W) 22:59:03 435.675 MHz FM
Oscar 11 21 Oct 22:48:14 22:52:30 58° 259° (W) 22:56:48 145.825 FM, Beacon 2401.500 USB
KITSAT 1 21 Oct 23:23:55 23:31:37 50° 244° (WSW) 23:39:17 435.175 FM
ZACube-1 21 Oct 23:27:50 23:32:21 54° 260° (W) 23:36:49 437.345 MHz
RS-15 21 Oct 23:36:20 23:46:39 50° 115° (ESE) 23:56:56 29.354 - 29.394 USB, Beacon 29.352 USB
UKube-1 21 Oct 23:41:29 23:44:24 17° 270° (W) 23:47:20 145.840 MHz, 145.915 MHz
FUNcube-1 22 Oct 00:14:44 00:18:17 22° 269° (W) 00:21:48 145.950 - 145.970 MHz USB
SO-50 22 Oct 00:15:23 00:19:11 23° 245° (WSW) 00:23:00 436.795 FM
UOSAT-12 22 Oct 00:15:58 00:20:44 68° 45° (NE) 00:25:24 437.025 FM, 437.400 FM
MaSat-1 22 Oct 00:44:47 00:47:13 15° 108° (ESE) 00:49:32 437.345 MHz
KITSAT 1 22 Oct 01:23:23 01:25:04 11° 265° (W) 01:26:45 435.175 FM
RS-15 22 Oct 01:47:50 01:58:43 67° 321° (NW) 02:09:44 29.354 - 29.394 USB, Beacon 29.352 USB
UOSAT-12 22 Oct 01:56:46 02:00:29 23° 245° (WSW) 02:04:08 437.025 FM, 437.400 FM
MaSat-1 22 Oct 02:18:33 02:22:38 70° 304° (NW) 02:26:18 437.345 MHz
Oscar 19 22 Oct 02:29:17 02:33:30 25° 92° (E) 02:37:42 437.125 CW, 437.150 USB
JAS-1B 22 Oct 02:36:32 02:42:04 30° 94° (E) 02:48:21 435.800 - 435.900 CW/SSB
AO-27 22 Oct 02:39:58 02:42:50 15° 86° (E) 02:45:41 436.795 MHz FM
Oscar 16 22 Oct 03:14:02 03:19:07 59° 101° (ESE) 03:24:10 437.025 USB, Beacon 2401.1428
Uribyol 2 22 Oct 03:28:02 03:32:53 36° 96° (E) 03:37:39 436.500 FM
ITAMSAT 1 22 Oct 03:33:13 03:38:07 38° 97° (E) 03:42:57 435.822 SSB
AO-Echo 22 Oct 03:34:09 03:39:18 50° 99° (E) 03:44:28 ?
Gurwin Techsat 1B 22 Oct 03:35:01 03:39:16 24° 91° (E) 03:43:29 435.225 FM
